[[{"header":{"parameterUnit":"m.s-1","parameterCategory":1,"la1":30.2991,"la2":30.254,"lo1":-89.0895,"lo2":-89.0444,"dx":0.0017,"dy":0.0017,"nx":28,"ny":28,"refTime":"2022-12-09T15:00:00:Z","depth":0,"parameterNumber":2,"parameterNumberName":"U-component_of_WINDS"},"data":[0,0,0,0,0,0,0,0,0,0,0,0,0,0,0,0,0,0,0,0,0,0,0,0,0,0,0,0,0,0,0,0,0,0,0,0,0,0,0,0,0,0,0,0,0,0,0,0,0,0,0,0,0,0,0,0,0,0,-2.0644,-2.0644,0,-2.0654,-2.0654,-2.0654,-2.0608,-2.0607,-2.0606,-2.0604,-2.0615,-2.0617,-2.0618,0,0,0,0,0,0,0,0,0,0,0,0,0,-2.0587,-2.0588,-2.0644,-2.0644,-2.0644,-2.0654,-2.0654,-2.0654,-2.0609,-2.0607,-2.0605,-2.0604,-2.0615,-2.0617,-2.0619,0,0,0,0,0,0,0,0,0,0,0,0,0,-2.0606,-2.0588,-2.0644,-2.0622,-2.0621,-2.0654,-2.0654,-2.0654,-2.0609,-2.0607,-2.0605,-2.0603,-2.0614,-2.0617,-2.0619,-2.0673,0,0,-2.0626,-2.0627,0,0,0,0,0,0,0,0,-2.0605,-2.0608,-2.0625,-2.0624,-2.0622,-2.0628,-2.0638,-2.0661,-2.0609,-2.0613,-2.0604,-2.0602,-2.0621,-2.0623,-2.0629,-2.0674,-2.0674,-2.0626,-2.0628,-2.0628,-2.0629,0,0,0,0,0,0,0,-2.0603,-2.0607,-2.0648,-2.0626,-2.0624,-2.0613,-2.0613,-2.0642,-2.0628,-2.0613,-2.061,-2.0611,-2.062,-2.0627,-2.0629,-2.0674,-2.0626,-2.0628,-2.063,-2.063,-2.0765,-2.0767,0,0,0,0,0,0,-2.0605,-2.0606,-2.0647,-2.0648,-2.0608,-2.0616,-2.0616,-2.0628,-2.0628,-2.0626,-2.0613,-2.0609,-2.0624,-2.0626,-2.0629,-2.0693,-2.0628,-2.0631,-2.0632,-2.0762,-2.0765,-2.0767,0,0,0,0,0,0,-2.0604,-2.0609,-2.0647,-2.0626,-2.063,-2.0619,-2.0632,-2.0629,-2.0636,-2.0628,-2.0626,-2.0623,-2.0623,-2.0626,-2.0663,-2.0693,-2.0632,-2.0634,-2.076,-2.0763,-2.0766,-2.0821,0,0,0,0,0,0,-2.0602,-2.0609,-2.0629,-2.0627,-2.0632,-2.068,-2.0634,-2.0631,-2.064,-2.0635,-2.0636,-2.0635,-2.0621,-2.0659,-2.0665,-2.0695,-2.0636,-2.0757,-2.0761,-2.0765,-2.0816,-2.0825,-2.0833,0,0,0,0,0,-2.06,-2.0644,-2.063,-2.0635,-2.0656,-2.0682,-2.0684,-2.0668,-2.0643,-2.0663,-2.0658,-2.0635,-2.0689,-2.0664,-2.0669,-2.07,-2.0755,-2.076,-2.0765,-2.0812,-2.0823,-2.0833,0,0,0,0,0,0,-2.0649,-2.0643,-2.0628,-2.0672,-2.0678,-2.0674,-2.0699,-2.068,-2.0693,-2.0688,-2.0667,-2.0668,-2.0708,-2.0708,-2.068,-2.0753,-2.0718,-2.0724,-2.0752,-2.0762,-2.0771,-2.0769,-2.0638,0,0,0,0,0,-2.0665,-2.0686,-2.068,-2.0719,-2.0723,-2.0711,-2.0721,-2.0708,-2.0713,-2.0715,-2.0713,-2.0719,-2.0738,-2.075,-2.0766,-2.0816,-2.0816,-2.084,-2.0849,-2.0856,-2.0862,-2.0888,-2.0899,-2.0784,-2.0784,-2.0783,0,0,-2.0698,-2.0697,-2.0712,-2.0729,-2.0732,-2.0754,-2.0713,-2.0738,-2.0755,-2.0719,-2.0753,-2.0752,-2.0758,-2.0802,-2.0821,-2.0803,-2.0894,-2.0862,-2.0868,-2.087,-2.0894,-2.0905,-2.0915,-2.0787,-2.0786,-2.0786,0,0,-2.0769,-2.0771,-2.0804,-2.0808,-2.0813,-2.0805,-2.0813,-2.0813,-2.081,-2.0845,-2.0819,-2.0838,-2.087,-2.0876,-2.0882,-2.0957,-2.0936,-2.0964,-2.1008,-2.1034,-2.1043,-2.1051,-2.1078,-2.1087,-2.0969,-2.0969,-2.0969,0,-2.081,-2.0842,-2.0824,-2.0851,-2.0859,-2.0829,-2.0862,-2.0867,-2.0878,-2.0885,-2.0864,-2.0904,-2.0906,-2.095,-2.0969,-2.0976,-2.0984,-2.0963,-2.1043,-2.1051,-2.1058,-2.1083,-2.1093,-2.0973,-2.0972,-2.0972,-2.0972,0,-2.0891,-2.0914,-2.094,-2.0951,-2.0963,-2.0993,-2.098,-2.0994,-2.0981,-2.0975,-2.101,-2.1012,-2.1028,-2.1038,-2.1025,-2.1081,-2.1069,-2.1047,-2.101,-2.1073,-2.1096,-2.1105,-2.0977,-2.0976,-2.0975,-2.0974,0,0,-2.0992,-2.0993,-2.1003,-2.1008,-2.1012,-2.1029,-2.1059,-2.1075,-2.1087,-2.1096,-2.112,-2.1149,-2.1128,-2.1136,-2.1123,-2.1146,-2.1206,-2.1121,-2.1121,-2.1136,-2.1268,-2.1284,-2.1295,-2.1192,-2.1194,-2.1196,-2.1267,0,-2.1062,-2.1111,-2.1096,-2.1146,-2.1168,-2.114,-2.1165,-2.1171,-2.1167,-2.1184,-2.118,-2.12,-2.1172,-2.1176,-2.1198,-2.1194,-2.1232,-2.1189,-2.1215,-2.1216,-2.1213,-2.1307,-2.1325,-2.1392,-2.1276,-2.1277,-2.1278,0,-2.1149,-2.1161,-2.1213,-2.1214,-2.1223,-2.1246,-2.126,-2.1277,-2.1283,-2.1278,-2.1288,-2.1271,-2.1301,-2.1265,-2.1306,-2.1277,-2.1287,-2.1287,-2.1289,-2.129,-2.125,-2.131,-2.1413,-2.1423,-2.1293,-2.1292,-2.129,0,-2.1217,-2.1246,-2.1281,-2.1286,-2.1289,-2.1306,-2.1308,-2.1312,-2.1322,-2.1335,-2.1342,-2.1358,-2.1366,-2.1379,-2.1367,-2.1342,-2.141,-2.1373,-2.1407,-2.1407,-2.1421,-2.142,-2.1526,-2.1429,-2.1429,-2.1429,-2.1429,0,-2.1295,-2.1328,-2.1312,-2.1333,-2.137,-2.1353,-2.139,-2.1388,-2.1393,-2.1414,-2.1391,-2.1412,-2.1395,-2.1414,-2.1405,-2.144,-2.1444,-2.1441,-2.1438,-2.1443,-2.1443,-2.1448,-2.1443,-2.1431,-2.1431,-2.143,-2.143,0,-2.1377,-2.1367,-2.1403,-2.1403,-2.1404,-2.143,-2.143,-2.145,-2.1445,-2.1472,-2.1478,-2.1469,-2.1491,-2.1481,-2.1503,-2.1497,-2.1542,-2.1533,-2.154,-2.1537,-2.1571,-2.1568,-2.1683,-2.1697,-2.1592,-2.1593,-2.1594,0,-2.1427,-2.1452,-2.1454,-2.1466,-2.147,-2.149,-2.1501,-2.1486,-2.1499,-2.1508,-2.1528,-2.1547,-2.1562,-2.1598,-2.1594,-2.1611,-2.1602,-2.1642,-2.1605,-2.1608,-2.1602,-2.1601,-2.1603,-2.1649,-2.165,-2.1651,-2.1652,0,-2.1517,-2.1511,-2.1528,-2.1543,-2.1557,-2.1568,-2.1578,-2.1589,-2.1575,-2.159,-2.1612,-2.1623,-2.1647,-2.1666,-2.1682,-2.1684,-2.1666,-2.1664,-2.1672,-2.1676,-2.1679,-2.1678,-2.1559,-2.1661,-2.166,-2.1659,-2.1659,-2.1658,-2.1584,-2.1605,-2.161,-2.1629,-2.1635,-2.1645,-2.1664,-2.1661,-2.1679,-2.1696,-2.1687,-2.1712,-2.1719,-2.1737,-2.1742,-2.1762,-2.1747,-2.1759,-2.1762,-2.1765,-2.177,-2.1677,-2.1765,-2.1765,-2.1764,-2.1764,-2.1764,0,-2.1673,-2.1675,-2.1693,-2.1707,-2.1722,-2.1704,-2.1714,-2.1728,-2.1751,-2.1758,-2.1773,-2.1799,-2.1818,-2.1817,-2.1834,-2.1851,-2.1843,-2.1856,-2.1854,-2.1855,-2.1783,-2.1773,-2.1862,-2.1862,-2.1862,-2.1862,-2.1862,-2.1862,-2.172,-2.1755,-2.175,-2.1787,-2.1789,-2.1813,-2.1821,-2.183,-2.1836,-2.1865,-2.1881,-2.188,-2.1884,-2.1902,-2.1919,-2.1918,-2.1926,-2.1942,-2.1938,-2.187,-2.186,-2.1851,-2.1842,-2.1944,-2.1944,-2.2008,-2.2009,-2.201]},{"header":{"parameterUnit":"m.s-1","parameterCategory":1,"la1":30.2991,"la2":30.254,"lo1":-89.0895,"lo2":-89.0444,"dx":0.0017,"dy":0.0017,"nx":28,"ny":28,"refTime":"2022-12-09T15:00:00:Z","depth":0,"parameterNumber":3,"parameterNumberName":"V-component_of_WINDS"},"data":[0,0,0,0,0,0,0,0,0,0,0,0,0,0,0,0,0,0,0,0,0,0,0,0,0,0,0,0,0,0,0,0,0,0,0,0,0,0,0,0,0,0,0,0,0,0,0,0,0,0,0,0,0,0,0,0,0,0,1.4135,1.4135,0,1.4182,1.4183,1.4183,1.4213,1.4214,1.4214,1.4214,1.426,1.4261,1.4262,0,0,0,0,0,0,0,0,0,0,0,0,0,1.4068,1.4069,1.4135,1.4135,1.4136,1.4182,1.4183,1.4183,1.4213,1.4214,1.4214,1.4214,1.426,1.4261,1.4262,0,0,0,0,0,0,0,0,0,0,0,0,0,1.4104,1.407,1.4134,1.4156,1.4159,1.4182,1.4183,1.4183,1.4213,1.4214,1.4214,1.4214,1.426,1.4261,1.4263,1.4267,0,0,1.4267,1.4268,0,0,0,0,0,0,0,0,1.4102,1.4107,1.4153,1.4155,1.4158,1.4192,1.4176,1.4211,1.4213,1.4193,1.4214,1.4214,1.4237,1.4241,1.4249,1.4269,1.4271,1.4268,1.4269,1.4269,1.427,0,0,0,0,0,0,0,1.41,1.4105,1.4153,1.4153,1.4156,1.4163,1.4169,1.4183,1.4213,1.4194,1.4197,1.4202,1.4239,1.4247,1.425,1.4272,1.4268,1.4269,1.427,1.4271,1.4297,1.4297,0,0,0,0,0,0,1.4094,1.4103,1.4152,1.4155,1.413,1.4164,1.417,1.4181,1.4213,1.4218,1.4202,1.4203,1.4244,1.4248,1.4252,1.4259,1.4269,1.4271,1.4272,1.4298,1.4297,1.4297,0,0,0,0,0,0,1.4093,1.4098,1.415,1.4129,1.4136,1.4165,1.4177,1.4182,1.419,1.4218,1.4223,1.4205,1.4245,1.425,1.4263,1.4261,1.4271,1.4273,1.4298,1.4298,1.4297,1.4273,0,0,0,0,0,0,1.4091,1.4097,1.41,1.4129,1.4137,1.4161,1.4176,1.4182,1.4193,1.4196,1.4223,1.4228,1.4245,1.4261,1.4265,1.4263,1.4274,1.4298,1.4298,1.4297,1.4274,1.4272,1.427,0,0,0,0,0,1.4088,1.4091,1.41,1.4106,1.4141,1.4161,1.4165,1.4186,1.4193,1.4195,1.4213,1.4227,1.4261,1.4262,1.4266,1.4266,1.4298,1.4298,1.4297,1.4275,1.4272,1.427,0,0,0,0,0,0,1.4059,1.4095,1.4105,1.4118,1.4136,1.4166,1.4169,1.4183,1.4199,1.42,1.4225,1.4231,1.4242,1.4255,1.4256,1.4271,1.4281,1.4281,1.4262,1.426,1.4258,1.4255,1.4275,0,0,0,0,0,1.4055,1.4068,1.4098,1.4106,1.4115,1.414,1.415,1.4164,1.4184,1.4192,1.4211,1.4228,1.4243,1.4252,1.4267,1.4276,1.4282,1.4278,1.4276,1.4274,1.4274,1.428,1.4278,1.4295,1.4295,1.4295,0,0,1.4045,1.4066,1.4073,1.4101,1.4117,1.413,1.4147,1.416,1.4169,1.4193,1.4208,1.4222,1.4243,1.4255,1.426,1.4266,1.4271,1.4273,1.4272,1.4273,1.4279,1.4277,1.4276,1.4295,1.4295,1.4295,0,0,1.4033,1.4051,1.4059,1.4075,1.4099,1.4116,1.4118,1.4146,1.4157,1.4171,1.419,1.4201,1.4226,1.4241,1.4252,1.4246,1.4259,1.425,1.4239,1.4244,1.4243,1.4242,1.424,1.4239,1.425,1.425,1.425,0,1.4018,1.4039,1.4062,1.4074,1.4086,1.4109,1.4118,1.4131,1.4159,1.4166,1.4172,1.4204,1.422,1.4235,1.4234,1.4241,1.4244,1.4247,1.4241,1.424,1.424,1.4238,1.4237,1.4249,1.4249,1.4249,1.4249,0,1.4019,1.4033,1.4037,1.4064,1.4076,1.4086,1.411,1.4119,1.4133,1.4149,1.4163,1.4183,1.4203,1.4208,1.4221,1.4224,1.4227,1.4237,1.4247,1.4237,1.4235,1.4235,1.4247,1.4247,1.4248,1.4248,0,0,1.3991,1.4031,1.4032,1.4044,1.4072,1.4083,1.4094,1.4114,1.4122,1.414,1.4149,1.417,1.4179,1.4191,1.4206,1.4211,1.4205,1.422,1.4221,1.4216,1.421,1.4203,1.4202,1.4214,1.4214,1.4214,1.4208,0,1.3984,1.4006,1.4027,1.4041,1.4054,1.4076,1.4086,1.4104,1.4119,1.4132,1.4149,1.4163,1.4174,1.4181,1.4187,1.4204,1.4204,1.4205,1.4222,1.4223,1.4217,1.4201,1.4193,1.4187,1.4208,1.4208,1.4208,0,1.3979,1.3997,1.4012,1.404,1.4046,1.4054,1.4074,1.4086,1.4107,1.4118,1.4131,1.4147,1.4159,1.4168,1.4185,1.4185,1.4193,1.4203,1.4203,1.4205,1.4215,1.4203,1.4186,1.4185,1.4207,1.4207,1.4207,0,1.3957,1.3985,1.3998,1.4008,1.404,1.4045,1.4059,1.408,1.409,1.4108,1.4115,1.4133,1.4142,1.4156,1.4175,1.418,1.419,1.42,1.4199,1.4198,1.42,1.42,1.4184,1.4205,1.4205,1.4205,1.4205,0,1.3948,1.3956,1.3989,1.3997,1.4007,1.4031,1.404,1.4055,1.4074,1.4085,1.4104,1.4114,1.414,1.4152,1.4168,1.4179,1.4183,1.4192,1.4196,1.419,1.4189,1.4196,1.4197,1.4205,1.4205,1.4205,1.4205,0,1.3926,1.3948,1.3964,1.3993,1.4,1.4006,1.4031,1.4039,1.4055,1.4069,1.4073,1.4099,1.4114,1.4136,1.4158,1.4168,1.4177,1.4184,1.4171,1.4173,1.4171,1.4171,1.4159,1.4159,1.4179,1.4179,1.4179,0,1.3918,1.3925,1.3955,1.3965,1.3978,1.3992,1.4003,1.4026,1.4037,1.4061,1.4066,1.4083,1.4099,1.4122,1.4142,1.4159,1.4166,1.4161,1.4169,1.4163,1.4166,1.4166,1.4166,1.4159,1.4159,1.4158,1.4158,0,1.3902,1.3913,1.3929,1.3948,1.3961,1.3978,1.3995,1.4001,1.4027,1.4038,1.4055,1.4067,1.409,1.4106,1.4126,1.4139,1.4153,1.4156,1.4156,1.4151,1.4143,1.4147,1.4166,1.4156,1.4156,1.4156,1.4156,1.4156,1.3888,1.3895,1.3918,1.3934,1.395,1.3965,1.3975,1.3992,1.4007,1.4028,1.404,1.4056,1.4077,1.4104,1.4117,1.4129,1.4135,1.4135,1.4136,1.4136,1.4134,1.4141,1.4133,1.4133,1.4133,1.4133,1.4133,0,1.3873,1.3889,1.3904,1.3928,1.3941,1.3953,1.3973,1.3983,1.3997,1.4015,1.4029,1.4048,1.4065,1.4086,1.4104,1.4109,1.4116,1.4113,1.4113,1.4116,1.4128,1.4126,1.4108,1.4108,1.4108,1.4108,1.4108,1.4108,1.3867,1.3881,1.3894,1.3915,1.3931,1.3947,1.3957,1.3971,1.3986,1.4006,1.402,1.4034,1.4053,1.4073,1.4088,1.4094,1.4099,1.4095,1.4102,1.4113,1.4115,1.4117,1.4115,1.4096,1.4095,1.4089,1.4089,1.4089]}]]